242 Weather Reports


time (UTC)temp
F
wind
direction
speed
knots
gust
knots
rain 1hr
in
rain 24hr
in
rain mn
in
humidity
%
barometer
mb
20260906184304 100 290 1.7 8.7 0.00 0.00 0.00 31 1001.5
20260906183805 100 323 3.5 8.7 0.00 0.00 0.00 32 1001.2
20260906183305 99 324 7.0 9.6 0.00 0.00 0.00 32 1001.5
20260906182805 99 325 5.2 10.4 0.00 0.00 0.00 32 1001.9
20260906182306 100 323 7.8 10.4 0.00 0.00 0.00 31 1001.5
20260906181805 99 283 2.6 7.0 0.00 0.00 0.00 32 1001.9
20260906181305 102 357 2.6 7.0 0.00 0.00 0.00 31 1001.9
20260906180805 103 217 1.7 3.5 0.00 0.00 0.00 30 1001.9
20260906180305 101 281 1.7 5.2 0.00 0.00 0.00 32 1002.2
20260906175804 99 315 3.5 7.8 0.00 0.00 0.00 33 1002.2
20260906175306 99 6 2.6 8.7 0.00 0.00 0.00 35 1002.2
20260906174805 100 331 3.5 8.7 0.00 0.00 0.00 34 1002.2
20260906174305 99 237 0.0 7.0 0.00 0.00 0.00 35 1002.6
20260906173805 98 291 1.7 10.4 0.00 0.00 0.00 36 1002.9
20260906173305 99 24 4.3 10.4 0.00 0.00 0.00 35 1002.6
20260906172804 98 325 3.5 6.1 0.00 0.00 0.00 37 1002.9
20260906172306 99 4 2.6 6.1 0.00 0.00 0.00 36 1002.9
20260906171804 99 310 3.5 6.1 0.00 0.00 0.00 36 1002.9
20260906171305 98 322 6.1 7.0 0.00 0.00 0.00 37 1003.3
20260906170804 98 249 2.6 7.0 0.00 0.00 0.00 37 1002.9
20260906170305 98 328 1.7 4.3 0.00 0.00 0.00 39 1003.3
20260906165805 98 278 1.7 7.0 0.00 0.00 0.00 39 1003.3
20260906165306 98 318 3.5 7.0 0.00 0.00 0.00 39 1003.3
20260906164805 98 257 3.5 8.7 0.00 0.00 0.00 38 1003.3
20260906164305 96 299 1.7 10.4 0.00 0.00 0.00 40 1003.3
20260906163805 96 340 6.1 10.4 0.00 0.00 0.00 39 1003.3
20260906163305 97 300 4.3 5.2 0.00 0.00 0.00 38 1003.6
20260906162804 98 280 2.6 5.2 0.00 0.00 0.00 39 1003.6
20260906162306 97 307 1.7 5.2 0.00 0.00 0.00 40 1003.6
20260906161804 98 254 1.7 4.3 0.00 0.00 0.00 38 1003.6
20260906161305 97 338 0.0 5.2 0.00 0.00 0.00 41 1003.6
20260906160804 96 312 2.6 5.2 0.00 0.00 0.00 41 1003.3
20260906160305 96 258 1.7 6.1 0.00 0.00 0.00 42 1003.6
20260906155804 95 244 1.7 7.0 0.00 0.00 0.00 44 1003.6
20260906155306 96 246 4.3 7.0 0.00 0.00 0.00 43 1003.6
20260906154804 96 265 2.6 4.3 0.00 0.00 0.00 42 1003.6
20260906154304 94 235 2.6 7.0 0.00 0.00 0.00 45 1003.6
20260906153804 93 296 2.6 7.0 0.00 0.00 0.00 46 1003.6
20260906153305 94 300 3.5 3.5 0.00 0.00 0.00 45 1003.6
20260906152804 93 289 0.9 6.1 0.00 0.00 0.00 46 1003.6
20260906152307 94 251 1.7 6.1 0.00 0.00 0.00 45 1003.6
20260906151804 93 217 3.5 3.5 0.00 0.00 0.00 47 1003.6
20260906151304 91 289 1.7 5.2 0.00 0.00 0.00 49 1003.3
20260906150804 90 249 2.6 7.0 0.00 0.00 0.00 51 1003.6
20260906150304 88 220 3.5 8.7 0.00 0.00 0.00 54 1003.6
20260906145805 89 243 5.2 8.7 0.00 0.00 0.00 53 1003.6
20260906145306 88 265 3.5 8.7 0.00 0.00 0.00 54 1003.6
20260906144804 87 275 2.6 8.7 0.00 0.00 0.00 56 1003.6
20260906144305 87 258 7.0 7.8 0.00 0.00 0.00 57 1003.6
20260906143805 87 239 7.0 7.8 0.00 0.00 0.00 57 1003.6
20260906143305 86 242 3.5 8.7 0.00 0.00 0.00 57 1003.3
20260906142804 86 245 3.5 8.7 0.00 0.00 0.00 58 1003.6
20260906142306 86 251 7.8 8.7 0.00 0.00 0.00 59 1003.6
20260906141804 86 252 2.6 7.0 0.00 0.00 0.00 59 1003.3
20260906141304 85 267 3.5 9.6 0.00 0.00 0.00 61 1004.0
20260906140804 84 254 6.1 9.6 0.00 0.00 0.00 60 1003.6
20260906140305 85 257 6.1 7.0 0.00 0.00 0.00 61 1003.6
20260906135804 84 201 3.5 7.0 0.00 0.00 0.00 62 1003.6
20260906135306 84 246 2.6 8.7 0.00 0.00 0.00 63 1003.6
20260906134804 84 306 0.9 8.7 0.00 0.00 0.00 64 1003.3
20260906134304 84 233 4.3 6.1 0.00 0.00 0.00 64 1003.6
20260906133804 83 127 0.0 6.1 0.00 0.00 0.00 65 1003.3
20260906133305 82 232 2.6 4.3 0.00 0.00 0.00 66 1003.3
20260906132804 82 199 0.9 4.3 0.00 0.00 0.00 68 1003.3
20260906132306 82 146 1.7 4.3 0.00 0.00 0.00 68 1003.3
20260906131804 81 212 0.9 4.3 0.00 0.00 0.00 70 1003.3
20260906131304 80 213 1.7 5.2 0.00 0.00 0.00 71 1003.3
20260906130804 80 199 1.7 5.2 0.00 0.00 0.00 72 1002.9
20260906130304 79 177 2.6 4.3 0.00 0.00 0.00 72 1002.9
20260906125804 79 163 3.5 6.1 0.00 0.00 0.00 72 1002.9
20260906125306 79 191 4.3 6.1 0.00 0.00 0.00 73 1002.9
20260906124804 78 174 4.3 6.1 0.00 0.00 0.00 73 1003.3
20260906124304 78 187 4.3 5.2 0.00 0.00 0.00 72 1002.9
20260906123804 78 204 3.5 6.1 0.00 0.00 0.00 73 1002.9
20260906123304 77 180 3.5 7.0 0.00 0.00 0.00 75 1002.6
20260906122804 78 175 4.3 7.0 0.00 0.00 0.00 75 1002.6
20260906122306 78 195 6.1 7.8 0.00 0.00 0.00 72 1002.9
20260906121804 78 205 6.1 7.8 0.00 0.00 0.00 73 1002.6
20260906121304 77 211 4.3 7.8 0.00 0.00 0.00 75 1002.6
20260906120804 77 195 6.1 7.8 0.00 0.00 0.00 74 1002.6
20260906120304 78 200 6.1 7.0 0.00 0.00 0.00 74 1002.6
20260906115804 78 187 4.3 7.0 0.00 0.00 0.00 73 1002.2
20260906115306 78 186 4.3 7.8 0.00 0.00 0.00 72 1002.2
20260906114804 78 215 5.2 7.8 0.00 0.00 0.00 72 1002.6
20260906114304 78 226 5.2 7.8 0.00 0.00 0.00 73 1002.2
20260906113804 78 205 6.1 9.6 0.00 0.00 0.00 74 1002.2
20260906113304 78 221 5.2 9.6 0.00 0.00 0.00 72 1002.2
20260906112804 78 213 6.1 7.8 0.00 0.00 0.00 73 1002.2
20260906112306 79 214 5.2 7.8 0.00 0.00 0.00 71 1002.2
20260906111804 79 201 3.5 6.1 0.00 0.00 0.00 68 1002.2
20260906111304 79 212 3.5 5.2 0.00 0.00 0.00 68 1002.2
20260906110804 80 235 3.5 5.2 0.00 0.00 0.00 66 1002.2
20260906110304 80 192 1.7 3.5 0.00 0.00 0.00 65 1002.6
20260906105804 80 174 1.7 4.3 0.00 0.00 0.00 65 1001.9
20260906105306 81 180 1.7 4.3 0.00 0.00 0.00 64 1002.2
20260906104804 81 192 2.6 4.3 0.00 0.00 0.00 63 1002.2
20260906104304 81 223 2.6 3.5 0.00 0.00 0.00 61 1002.2
20260906103804 81 221 2.6 3.5 0.00 0.00 0.00 61 1001.9
20260906103304 81 213 2.6 3.5 0.00 0.00 0.00 61 1002.6
20260906102804 81 254 2.6 3.5 0.00 0.00 0.00 61 1002.2
20260906102306 82 296 2.6 3.5 0.00 0.00 0.00 61 1002.2
20260906101805 82 301 1.7 2.6 0.00 0.00 0.00 62 1002.2
20260906101304 82 194 0.9 3.5 0.00 0.00 0.00 61 1001.9
20260906100804 82 260 0.9 3.5 0.00 0.00 0.00 61 1001.9
20260906100304 82 220 2.6 3.5 0.00 0.00 0.00 61 1001.9
20260906095804 82 215 0.9 3.5 0.00 0.00 0.00 61 1001.9
20260906095306 82 200 0.0 4.3 0.00 0.00 0.00 61 1002.2
20260906094805 82 341 0.0 4.3 0.00 0.00 0.00 61 1002.2
20260906094305 82 335 1.7 4.3 0.00 0.00 0.00 62 1001.9
20260906093804 83 214 2.6 2.6 0.00 0.00 0.00 61 1001.9
20260906093304 83 230 0.0 3.5 0.00 0.00 0.00 61 1001.5
20260906092804 83 352 0.0 6.1 0.00 0.00 0.00 61 1001.9
20260906092306 82 334 2.6 7.0 0.00 0.00 0.00 61 1001.5
20260906091804 83 341 3.5 7.8 0.00 0.00 0.00 61 1001.5
20260906091304 83 331 4.3 7.8 0.00 0.00 0.00 60 1001.5
20260906090804 84 324 3.5 5.2 0.00 0.00 0.00 58 1001.5
20260906090304 84 301 1.7 4.3 0.00 0.00 0.00 56 1001.2
20260906085804 84 306 3.5 4.3 0.00 0.00 0.00 55 1001.5
20260906085306 84 12 0.0 4.3 0.00 0.00 0.00 55 1001.5
20260906084804 85 209 0.9 7.0 0.00 0.00 0.00 54 1001.5
20260906084304 84 330 0.0 7.8 0.00 0.00 0.00 54 1001.5
20260906083804 85 196 5.2 9.6 0.00 0.00 0.00 54 1001.2
20260906083304 85 214 7.8 12.2 0.00 0.00 0.00 53 1001.2
20260906082804 85 206 7.0 12.2 0.00 0.00 0.00 54 1001.2
20260906082306 85 192 6.1 10.4 0.00 0.00 0.00 54 1001.2
20260906081804 85 197 6.1 11.3 0.00 0.00 0.00 53 1001.2
20260906081305 85 193 7.8 11.3 0.00 0.00 0.00 53 1001.2
20260906080804 86 212 7.0 9.6 0.00 0.00 0.00 52 1001.2
20260906080304 86 194 6.1 8.7 0.00 0.00 0.00 51 1001.2
20260906075804 86 207 7.8 8.7 0.00 0.00 0.00 51 1000.9
20260906075306 86 207 4.3 9.6 0.00 0.00 0.00 51 1001.2
20260906074804 87 178 7.0 12.2 0.00 0.00 0.00 49 1001.2
20260906074304 87 177 7.0 13.9 0.00 0.00 0.00 50 1001.2
20260906073804 86 185 8.7 13.9 0.00 0.00 0.00 51 1001.5
20260906073304 87 164 8.7 11.3 0.00 0.00 0.00 51 1001.2
20260906072804 88 179 7.0 11.3 0.00 0.00 0.00 48 1001.5
20260906072306 87 169 9.6 10.4 0.00 0.00 0.00 50 1001.2
20260906071804 86 154 7.8 10.4 0.00 0.00 0.00 53 1001.5
20260906071304 86 156 4.3 10.4 0.00 0.00 0.00 53 1001.2
20260906070804 88 159 7.8 10.4 0.00 0.00 0.00 50 1001.5
20260906070304 88 140 5.2 6.1 0.00 0.00 0.00 48 1001.5
20260906065804 88 148 4.3 7.0 0.00 0.00 0.00 49 1001.5
20260906065305 87 146 3.5 8.7 0.00 0.00 0.00 51 1001.2
20260906064804 87 137 6.1 8.7 0.00 0.00 0.00 51 1001.9
20260906064304 88 120 6.1 7.8 0.00 0.00 0.00 49 1001.5
20260906063804 89 121 2.6 6.1 0.00 0.00 0.00 47 1001.5
20260906063304 89 267 1.7 6.1 0.00 0.00 0.00 48 1001.5
20260906062804 89 56 3.5 9.6 0.00 0.00 0.00 48 1001.2
20260906062306 89 45 7.0 13.0 0.00 0.00 0.00 47 1001.5
20260906061804 88 350 7.0 16.5 0.00 0.00 0.00 49 1001.5
20260906061304 88 33 12.2 16.5 0.00 0.00 0.00 49 1001.9
20260906060804 87 16 8.7 11.3 0.00 0.00 0.00 51 1001.9
20260906060304 87 48 7.0 12.2 0.00 0.00 0.00 50 1001.9
20260906055804 87 49 7.8 12.2 0.00 0.00 0.00 51 1002.2
20260906055306 87 55 9.6 12.2 0.00 0.00 0.00 50 1001.9
20260906054804 85 48 7.8 12.2 0.00 0.00 0.00 54 1001.9
20260906054304 87 49 8.7 11.3 0.00 0.00 0.00 52 1001.9
20260906053804 87 33 2.6 2.6 0.00 0.00 0.00 50 1001.9
20260906053304 87 80 1.7 2.6 0.00 0.00 0.00 50 1001.9
20260906052804 87 69 1.7 2.6 0.00 0.00 0.00 51 1001.9
20260906052305 87 17 1.7 2.6 0.00 0.00 0.00 51 1001.9
20260906051804 87 114 0.9 2.6 0.00 0.00 0.00 52 1001.5
20260906051304 87 212 0.0 4.3 0.00 0.00 0.00 53 1001.9
20260906050804 86 79 0.9 7.8 0.00 0.00 0.00 52 1001.9
20260906050304 87 85 3.5 7.8 0.00 0.00 0.00 57 1001.9
20260906045804 89 320 0.0 2.6 0.00 0.00 0.00 49 1001.9
20260906045306 89 246 0.0 3.5 0.00 0.00 0.00 49 1001.9
20260906044804 89 209 1.7 3.5 0.00 0.00 0.00 50 1001.9
20260906044304 89 241 1.7 2.6 0.00 0.00 0.00 46 1001.9
20260906043804 87 246 1.7 5.2 0.00 0.00 0.00 48 1001.5
20260906043304 87 269 0.9 5.2 0.00 0.00 0.00 55 1001.5
20260906042804 87 131 3.5 5.2 0.00 0.00 0.00 54 1001.9
20260906042306 88 253 1.7 2.6 0.00 0.00 0.00 57 1001.5
20260906041804 89 331 0.0 2.6 0.00 0.00 0.00 48 1001.5
20260906041304 88 347 1.7 2.6 0.00 0.00 0.00 48 1001.5
20260906040804 89 330 1.7 2.6 0.00 0.00 0.00 49 1001.2
20260906040304 90 330 1.7 2.6 0.00 0.00 0.00 47 1001.2
20260906035804 91 12 0.9 2.6 0.00 0.00 0.00 43 1001.5
20260906035306 90 103 0.0 0.9 0.00 0.00 0.00 45 1001.9
20260906034804 90 135 0.0 1.7 0.00 0.00 0.00 46 1001.5
20260906034304 89 128 0.0 4.3 0.00 0.00 0.00 46 1001.9
20260906033804 89 168 0.0 4.3 0.00 0.00 0.00 48 1001.5
20260906033304 89 260 0.0 3.5 0.00 0.00 0.00 47 1001.5
20260906032804 90 353 2.6 3.5 0.00 0.00 0.00 46 1001.2
20260906032306 91 18 1.7 4.3 0.00 0.00 0.00 42 1001.2
20260906031804 92 37 2.6 4.3 0.00 0.00 0.00 40 1001.2
20260906031304 92 42 3.5 4.3 0.00 0.00 0.00 41 1001.2
20260906030804 92 32 2.6 3.5 0.00 0.00 0.00 42 1001.5
20260906030304 92 50 2.6 3.5 0.00 0.00 0.00 42 1001.2
20260906025804 92 55 1.7 2.6 0.00 0.00 0.00 42 1001.2
20260906025306 92 76 0.0 1.7 0.00 0.00 0.00 42 1001.2
20260906024804 92 268 0.0 1.7 0.00 0.00 0.00 42 1001.2
20260906024304 92 300 0.0 1.7 0.00 0.00 0.00 43 1001.2
20260906023804 93 261 1.7 1.7 0.00 0.00 0.00 42 1000.9
20260906023304 93 284 0.0 1.7 0.00 0.00 0.00 42 1001.2
20260906022804 93 280 0.9 1.7 0.00 0.00 0.00 42 1000.9
20260906022307 93 276 0.0 2.6 0.00 0.00 0.00 41 1000.9
20260906021804 93 285 1.7 2.6 0.00 0.00 0.00 41 1000.9
20260906021304 94 333 1.7 2.6 0.00 0.00 0.00 40 1000.5
20260906020804 94 354 1.7 2.6 0.00 0.00 0.00 40 1000.5
20260906020304 94 356 1.7 2.6 0.00 0.00 0.00 41 1000.5
20260906015804 95 348 1.7 2.6 0.00 0.00 0.00 39 1000.9
20260906015306 95 344 1.7 3.5 0.00 0.00 0.00 38 1000.2
20260906014804 95 336 1.7 3.5 0.00 0.00 0.00 37 1000.5
20260906014304 96 339 3.5 3.5 0.00 0.00 0.00 37 1000.2
20260906013804 96 335 2.6 3.5 0.00 0.00 0.00 36 1000.2
20260906013304 97 334 2.6 3.5 0.00 0.00 0.00 35 1000.2
20260906012804 97 337 2.6 4.3 0.00 0.00 0.00 35 1000.5
20260906012306 97 327 0.9 4.3 0.00 0.00 0.00 35 1000.2
20260906011804 96 330 4.3 4.3 0.00 0.00 0.00 36 1000.2
20260906011303 97 342 3.5 3.5 0.00 0.00 0.00 35 1000.2
20260906010804 97 337 3.5 3.5 0.00 0.00 0.00 35 1000.2
20260906010304 97 311 0.9 4.3 0.00 0.00 0.00 35 1000.2
20260906005804 97 351 0.9 4.3 0.00 0.00 0.00 35 999.8
20260906005306 97 342 2.6 3.5 0.00 0.00 0.00 35 999.8
20260906004804 98 349 2.6 2.6 0.00 0.00 0.00 34 999.8
20260906004304 98 8 2.6 2.6 0.00 0.00 0.00 34 999.8
20260906003803 98 2.6 3.5 0.00 0.00 0.00 34 1000.2
20260906003304 98 354 1.7 4.3 0.00 0.00 0.00 34 999.8
20260906002804 98 2 1.7 4.3 0.00 0.00 0.00 34 1000.2
20260906002306 98 342 2.6 2.6 0.00 0.00 0.00 34 1000.2
20260906001804 98 36 0.9 2.6 0.00 0.00 0.00 34 999.8
20260906001304 98 55 0.0 3.5 0.00 0.00 0.00 34 1000.2
20260906000804 98 62 1.7 3.5 0.00 0.00 0.00 33 1000.2
20260906000304 98 358 1.7 3.5 0.00 0.00 0.00 33 1000.2
20260905235804 98 3 0.9 3.5 0.00 0.00 0.00 33 1000.2
20260905235306 98 326 1.7 3.5 0.00 0.00 0.00 33 1000.2
20260905234804 98 357 1.7 3.5 0.00 0.00 0.00 33 1000.2
20260905234304 99 34 1.7 4.3 0.00 0.00 0.00 33 1000.2
20260905233804 99 2.6 4.3 0.00 0.00 0.00 34 1000.2
20260905233304 98 9 0.9 6.1 0.00 0.00 0.00 34 1000.2
20260905232804 98 347 1.7 7.0 0.00 0.00 0.00 33 1000.2
20260905232306 99 14 5.2 7.0 0.00 0.00 0.00 34 1000.2
20260905231803 98 34 1.7 5.2 0.00 0.00 0.00 34 1000.2
20260905231304 98 77 4.3 7.8 0.00 0.00 0.00 34 1000.2
20260905230804 98 15 4.3 7.8 0.00 0.00 0.00 34 1000.2
20260905230304 99 11 5.2 9.6 0.00 0.00 0.00 33 999.8
20260905225804 99 35 7.0 9.6 0.00 0.00 0.00 33 999.8
20260905225305 99 126 2.6 7.0 0.00 0.00 0.00 33 999.8
20260905224804 99 65 5.2 7.0 0.00 0.00 0.00 33 999.8
20260905224303 99 98 2.6 9.6 0.00 0.00 0.00 33 999.8
20260905223803 100 160 6.1 9.6 0.00 0.00 0.00 33 999.8
20260905223304 100 119 5.2 7.8 0.00 0.00 0.00 32 999.8
20260905222804 100 242 1.7 7.8 0.00 0.00 0.00 32 1000.2
20260905222306 100 30 2.6 5.2 0.00 0.00 0.00 33 999.8
20260905221803 100 24 2.6 6.1 0.00 0.00 0.00 32 999.8
20260905221304 101 157 0.9 6.1 0.00 0.00 0.00 31 1000.2
20260905220803 100 288 2.6 7.0 0.00 0.00 0.00 32 1000.2
20260905220303 101 191 2.6 7.0 0.00 0.00 0.00 32 1000.2
20260905215804 100 255 4.3 8.7 0.00 0.00 0.00 32 1000.2
20260905215306 100 242 3.5 8.7 0.00 0.00 0.00 32 1000.2
20260905214804 100 247 4.3 8.7 0.00 0.00 0.00 32 1000.2
20260905214304 100 180 4.3 6.1 0.00 0.00 0.00 33 999.8
20260905213804 101 104 4.3 6.1 0.00 0.00 0.00 32 1000.2
20260905213304 100 260 2.6 6.1 0.00 0.00 0.00 33 1000.2
20260905212804 100 153 2.6 6.1 0.00 0.00 0.00 32 1000.2
20260905212306 99 287 1.7 9.6 0.00 0.00 0.00 33 1000.5
20260905211803 100 144 6.1 9.6 0.00 0.00 0.00 32 1000.5
20260905211304 101 256 4.3 7.8 0.00 0.00 0.00 31 1000.5
20260905210804 100 297 1.7 7.0 0.00 0.00 0.00 32 1000.5
20260905210304 100 177 3.5 7.0 0.00 0.00 0.00 31 1000.9
20260905205804 99 317 1.7 6.1 0.00 0.00 0.00 33 1000.9
20260905205306 99 2.6 7.0 0.00 0.00 0.00 33 1001.2
20260905204804 99 40 0.9 7.0 0.00 0.00 0.00 33 1000.9
20260905204303 98 255 2.6 7.8 0.00 0.00 0.00 34 1000.9
20260905203804 98 38 3.5 9.6 0.00 0.00 0.00 34 1001.2
20260905203304 99 91 4.3 9.6 0.00 0.00 0.00 34 1001.2
20260905202804 99 127 2.6 9.6 0.00 0.00 0.00 34 1001.2
20260905202306 101 241 2.6 6.1 0.00 0.00 0.00 32 1001.2
20260905201804 101 227 4.3 6.1 0.00 0.00 0.00 32 1001.2
20260905201303 100 258 1.7 6.1 0.00 0.00 0.00 33 1001.9
20260905200803 100 269 2.6 3.5 0.00 0.00 0.00 34 1001.5
20260905200304 99 248 2.6 6.1 0.00 0.00 0.00 35 1001.9
20260905195803 101 162 1.7 6.1 0.00 0.00 0.00 33 1001.9
20260905195306 101 112 1.7 4.3 0.00 0.00 0.00 34 1001.9
20260905194803 99 309 0.0 7.8 0.00 0.00 0.00 35 1001.9
20260905194303 99 242 4.3 7.8 0.00 0.00 0.00 35 1001.9
20260905193802 98 237 2.6 7.0 0.00 0.00 0.00 36 1001.9
20260905193302 98 213 4.3 6.1 0.00 0.00 0.00 36 1002.2
20260905192803 98 117 5.2 7.8 0.00 0.00 0.00 36 1002.2
20260905192305 97 165 3.5 7.8 0.00 0.00 0.00 36 1002.2
20260905191803 97 67 2.6 9.6 0.00 0.00 0.00 37 1002.2
20260905191303 97 89 5.2 9.6 0.00 0.00 0.00 37 1002.2
20260905190803 97 342 2.6 6.1 0.00 0.00 0.00 36 1002.2
20260905190303 97 138 3.5 7.8 0.00 0.00 0.00 36 1002.2
20260905185803 97 160 5.2 11.3 0.00 0.00 0.00 36 1002.6
20260905185305 98 168 4.3 11.3 0.00 0.00 0.00 36 1002.6
20260905184803 98 188 5.2 9.6 0.00 0.00 0.00 36 1002.6